,,,PA_Meas_PMT16A,,PR_Meas_QMR101_102,,RH_Meas_QMH101,,SR_Meas_QMS101,,TA_Meas_QMH101,,GenWind,,GenWind,
date,time,status,PA,status,PR,status,RH,status,SR,status,TA,status,DirAvg,status,SpdAvg,
2010-05-26, 00:00:05,VALID,1000.98,VALID,0,VALID,92.8448,VALID,0,VALID,24.6965,VALID,13,VALID,0.302734,
2010-05-26, 00:01:05,VALID,1000.96,VALID,0,VALID,92.8906,VALID,0,VALID,24.6751,VALID,13,VALID,0,
2010-05-26, 00:02:05,VALID,1000.91,VALID,0,VALID,92.9745,VALID,0,VALID,24.716,VALID,12,VALID,0,
2010-05-26, 00:03:05,VALID,1000.92,VALID,0,VALID,93.0585,VALID,0,VALID,24.6946,VALID,9,VALID,0,
2010-05-26, 00:04:05,VALID,1000.93,VALID,0,VALID,93.1195,VALID,0,VALID,24.716,VALID,9,VALID,0,
2010-05-26, 00:05:05,VALID,1000.96,VALID,0,VALID,93.1271,VALID,0,VALID,24.7142,VALID,62,VALID,1.03242,
2010-05-26, 00:06:05,VALID,1001.01,VALID,0,VALID,93.1348,VALID,0,VALID,24.7142,VALID,155,VALID,1.74688,
2010-05-26, 00:07:05,VALID,1001.02,VALID,0,VALID,93.0814,VALID,0,VALID,24.677,VALID,134,VALID,2.15469,
2010-05-26, 00:08:05,VALID,1001.05,VALID,0,VALID,93.0966,VALID,0,VALID,24.6751,VALID,150,VALID,2.08711,
2010-05-26, 00:09:05,VALID,1001.04,VALID,0,VALID,93.1958,VALID,0.112286,VALID,24.7142,VALID,163,VALID,2.11367,
2010-05-26, 00:10:05,VALID,1001.01,VALID,0,VALID,93.1958,VALID,0,VALID,24.7746,VALID,156,VALID,1.80234,
2010-05-26, 00:11:05,VALID,1001.05,VALID,0,VALID,93.1805,VALID,0,VALID,24.7941,VALID,152,VALID,1.35508,
2010-05-26, 00:12:05,VALID,1001.04,VALID,0,VALID,93.1424,VALID,0,VALID,24.7941,VALID,135,VALID,1.24297,
2010-05-26, 00:13:05,VALID,1001.05,VALID,0,VALID,93.0661,VALID,0,VALID,24.7746,VALID,156,VALID,0.989453,
2010-05-26, 00:14:05,VALID,1001.05,VALID,0,VALID,93.0051,VALID,0,VALID,24.7727,VALID,150,VALID,1.22773,
2010-05-26, 00:15:05,VALID,1001.04,VALID,0,VALID,92.9669,VALID,0,VALID,24.7727,VALID,153,VALID,1.01133,
2010-05-26, 00:16:05,VALID,1001.05,VALID,0,VALID,92.883,VALID,0,VALID,24.7727,VALID,127,VALID,0.991016,
2010-05-26, 00:17:05,VALID,1001.04,VALID,0,VALID,92.7762,VALID,0,VALID,24.7941,VALID,109,VALID,1.0332,
2010-05-26, 00:18:05,VALID,1000.98,VALID,0,VALID,92.7075,VALID,0,VALID,24.7727,VALID,90,VALID,0.996094,
2010-05-26, 00:19:05,VALID,1000.99,VALID,0,VALID,92.6388,VALID,0,VALID,24.7727,VALID,72,VALID,0.858594,
2010-05-26, 00:20:05,VALID,1000.95,VALID,0,VALID,92.6312,VALID,0,VALID,24.7727,VALID,71,VALID,0.678125,
2010-05-26, 00:21:05,VALID,1000.95,VALID,0,VALID,92.5702,VALID,0,VALID,24.7532,VALID,67,VALID,0.488281,
2010-05-26, 00:22:05,VALID,1000.92,VALID,0,VALID,92.5473,VALID,0,VALID,24.7337,VALID,58,VALID,0.539063,
2010-05-26, 00:23:05,VALID,1000.88,VALID,0,VALID,92.5244,VALID,0,VALID,24.6946,VALID,15,VALID,0.691406,
2010-05-26, 00:24:05,VALID,1000.86,VALID,0,VALID,92.5549,VALID,0,VALID,24.6965,VALID,5,VALID,0.692578,
2010-05-26, 00:25:05,VALID,1000.86,VALID,0,VALID,92.5931,VALID,0,VALID,24.6751,VALID,5,VALID,0.655859,
2010-05-26, 00:26:05,VALID,1000.84,VALID,0,VALID,92.616,VALID,0,VALID,24.6751,VALID,342,VALID,0.360938,
2010-05-26, 00:27:05,VALID,1000.82,VALID,0,VALID,92.677,VALID,0,VALID,24.6556,VALID,342,VALID,0.167187,
2010-05-26, 00:28:05,VALID,1000.82,VALID,0,VALID,92.6923,VALID,0,VALID,24.6556,VALID,342,VALID,0.425781,
2010-05-26, 00:29:05,VALID,1000.8,VALID,0,VALID,92.7228,VALID,0,VALID,24.6361,VALID,342,VALID,0.0339844,
2010-05-26, 00:30:05,VALID,1000.78,VALID,0,VALID,92.7609,VALID,0,VALID,24.6166,VALID,342,VALID,0,
2010-05-26, 00:31:05,VALID,1000.75,VALID,0,VALID,92.738,VALID,0,VALID,24.6184,VALID,342,VALID,0,
2010-05-26, 00:32:05,VALID,1000.78,VALID,0,VALID,92.7457,VALID,0,VALID,24.5989,VALID,342,VALID,0.307422,
2010-05-26, 00:33:05,VALID,1000.75,VALID,0,VALID,92.7991,VALID,0,VALID,24.558,VALID,342,VALID,0.475781,
2010-05-26, 00:34:05,VALID,1000.76,VALID,0,VALID,92.8448,VALID,0,VALID,24.558,VALID,342,VALID,0.576953,
2010-05-26, 00:35:05,VALID,1000.8,VALID,0,VALID,92.8677,VALID,0,VALID,24.5385,VALID,342,VALID,0.558594,
2010-05-26, 00:36:05,VALID,1000.77,VALID,0,VALID,92.8677,VALID,0,VALID,24.519,VALID,45,VALID,0.583984,
2010-05-26, 00:37:05,VALID,1000.82,VALID,0,VALID,92.883,VALID,0,VALID,24.4995,VALID,64,VALID,0.771484,
2010-05-26, 00:38:05,VALID,1000.8,VALID,0,VALID,92.9135,VALID,0,VALID,24.4995,VALID,89,VALID,1.03047,
2010-05-26, 00:39:05,VALID,1000.8,VALID,0,VALID,92.9517,VALID,0,VALID,24.4995,VALID,104,VALID,0.916406,
2010-05-26, 00:40:05,VALID,1000.79,VALID,0,VALID,93.0814,VALID,0,VALID,24.5404,VALID,90,VALID,1.00078,
2010-05-26, 00:41:05,VALID,1000.8,VALID,0,VALID,93.1271,VALID,0,VALID,24.5599,VALID,94,VALID,0.828906,
2010-05-26, 00:42:05,VALID,1000.77,VALID,0,VALID,93.1271,VALID,0,VALID,24.5794,VALID,100,VALID,0.916016,
2010-05-26, 00:43:05,VALID,1000.79,VALID,0,VALID,93.1195,VALID,0,VALID,24.5775,VALID,101,VALID,0.869922,
2010-05-26, 00:44:05,VALID,1000.79,VALID,0,VALID,93.0661,VALID,0,VALID,24.5794,VALID,101,VALID,0.621484,
2010-05-26, 00:45:05,VALID,1000.72,VALID,0,VALID,93.0203,VALID,0,VALID,24.558,VALID,101,VALID,0.619922,
2010-05-26, 00:46:05,VALID,1000.72,VALID,0,VALID,92.9745,VALID,0,VALID,24.5385,VALID,101,VALID,0.665234,
2010-05-26, 00:47:05,VALID,1000.7,VALID,0,VALID,92.9745,VALID,0,VALID,24.519,VALID,101,VALID,0.778906,
2010-05-26, 00:48:05,VALID,1000.7,VALID,0,VALID,92.9822,VALID,0,VALID,24.5209,VALID,101,VALID,0.535547,
2010-05-26, 00:49:05,VALID,1000.66,VALID,0,VALID,92.9517,VALID,0,VALID,24.5013,VALID,101,VALID,0.494531,
2010-05-26, 00:50:05,VALID,1000.66,VALID,0,VALID,92.9593,VALID,0,VALID,24.4604,VALID,100,VALID,0.725,
2010-05-26, 00:51:05,VALID,1000.64,VALID,0,VALID,93.0737,VALID,0,VALID,24.4604,VALID,100,VALID,0.680078,
2010-05-26, 00:52:05,VALID,1000.66,VALID,0,VALID,93.1119,VALID,0,VALID,24.4623,VALID,100,VALID,0.539063,
2010-05-26, 00:53:05,VALID,1000.65,VALID,0,VALID,93.15,VALID,0,VALID,24.4623,VALID,100,VALID,0.294141,
2010-05-26, 00:54:05,VALID,1000.65,VALID,0,VALID,93.1729,VALID,0,VALID,24.4428,VALID,150,VALID,0.716016,
2010-05-26, 00:55:05,VALID,1000.69,VALID,0,VALID,93.2721,VALID,0,VALID,24.4818,VALID,169,VALID,1.21836,
2010-05-26, 00:56:05,VALID,1000.65,VALID,0,VALID,93.3179,VALID,0,VALID,24.5013,VALID,173,VALID,1.1332,
2010-05-26, 00:57:05,VALID,1000.66,VALID,0,VALID,93.3942,VALID,0,VALID,24.4995,VALID,173,VALID,0.767187,
2010-05-26, 00:58:05,VALID,1000.69,VALID,0,VALID,93.4094,VALID,0,VALID,24.5599,VALID,173,VALID,1.09102,
2010-05-26, 00:59:05,VALID,1000.66,VALID,0,VALID,93.44,VALID,0,VALID,24.5989,VALID,177,VALID,1.76953,
2010-05-26, 01:00:05,VALID,1000.65,VALID,0,VALID,93.4781,VALID,0,VALID,24.638,VALID,204,VALID,1.23789,
2010-05-26, 01:01:05,VALID,1000.61,VALID,0,VALID,93.4628,VALID,0,VALID,24.6361,VALID,220,VALID,0.524609,
2010-05-26, 01:02:05,VALID,1000.58,VALID,0,VALID,93.4171,VALID,0,VALID,24.677,VALID,220,VALID,0.154687,
2010-05-26, 01:03:05,VALID,1000.52,VALID,0,VALID,93.3942,VALID,0,VALID,24.6575,VALID,220,VALID,0.382031,
2010-05-26, 01:04:05,VALID,1000.5,VALID,0,VALID,93.3103,VALID,0,VALID,24.638,VALID,271,VALID,0.574219,
2010-05-26, 01:05:05,VALID,1000.47,VALID,0,VALID,93.2645,VALID,0,VALID,24.638,VALID,313,VALID,0.760547,
2010-05-26, 01:06:05,VALID,1000.47,VALID,0,VALID,93.1424,VALID,0,VALID,24.5989,VALID,325,VALID,0.880469,
2010-05-26, 01:07:05,VALID,1000.44,VALID,0,VALID,93.1119,VALID,0,VALID,24.5599,VALID,325,VALID,0.806641,
2010-05-26, 01:08:05,VALID,1000.45,VALID,0,VALID,93.0432,VALID,0,VALID,24.4995,VALID,331,VALID,0.764453,
2010-05-26, 01:09:05,VALID,1000.42,VALID,0,VALID,93.0737,VALID,0,VALID,24.48,VALID,331,VALID,0.690234,
2010-05-26, 01:10:05,VALID,1000.4,VALID,0,VALID,93.0737,VALID,0,VALID,24.4818,VALID,331,VALID,0.828906,
2010-05-26, 01:11:05,VALID,1000.39,VALID,0,VALID,93.1043,VALID,0,VALID,24.4623,VALID,334,VALID,0.896484,
2010-05-26, 01:12:05,VALID,1000.39,VALID,0,VALID,93.1195,VALID,0,VALID,24.4019,VALID,343,VALID,1.03789,
2010-05-26, 01:13:05,VALID,1000.39,VALID,0,VALID,93.1348,VALID,0,VALID,24.3629,VALID,343,VALID,0.932422,
2010-05-26, 01:14:05,VALID,1000.35,VALID,0,VALID,93.1882,VALID,0,VALID,24.3647,VALID,343,VALID,0.667578,
2010-05-26, 01:15:05,VALID,1000.34,VALID,0,VALID,93.2263,VALID,0,VALID,24.3647,VALID,343,VALID,0.633984,
2010-05-26, 01:16:05,VALID,1000.32,VALID,0,VALID,93.2416,VALID,0,VALID,24.3257,VALID,343,VALID,0.304297,
2010-05-26, 01:17:05,VALID,1000.33,VALID,0,VALID,93.2492,VALID,0,VALID,24.2653,VALID,343,VALID,0,
2010-05-26, 01:18:05,VALID,1000.33,VALID,0,VALID,93.2187,VALID,0,VALID,24.2476,VALID,343,VALID,0,
2010-05-26, 01:19:05,VALID,1000.34,VALID,0,VALID,93.2263,VALID,0,VALID,24.1891,VALID,343,VALID,0,
2010-05-26, 01:20:05,VALID,1000.34,VALID,0,VALID,93.2874,VALID,0,VALID,24.1677,VALID,343,VALID,0,
2010-05-26, 01:21:05,VALID,1000.34,VALID,0,VALID,93.295,VALID,0,VALID,24.1482,VALID,343,VALID,0.560156,
2010-05-26, 01:22:05,VALID,1000.33,VALID,0,VALID,93.3713,VALID,0,VALID,24.1696,VALID,145,VALID,0.732422,
2010-05-26, 01:23:05,VALID,1000.33,VALID,0,VALID,93.4171,VALID,0,VALID,24.1696,VALID,145,VALID,0.545313,
2010-05-26, 01:24:05,VALID,1000.32,VALID,0,VALID,93.4857,VALID,0,VALID,24.1482,VALID,145,VALID,0.656641,
2010-05-26, 01:25:05,VALID,1000.32,VALID,0,VALID,93.5315,VALID,0,VALID,24.1677,VALID,145,VALID,0.519922,
2010-05-26, 01:26:05,VALID,1000.3,VALID,0,VALID,93.5773,VALID,0,VALID,24.1872,VALID,145,VALID,0,
2010-05-26, 01:27:05,VALID,1000.28,VALID,0,VALID,93.6307,VALID,0,VALID,24.2476,VALID,76,VALID,0.555078,
2010-05-26, 01:28:05,VALID,1000.29,VALID,0,VALID,93.646,VALID,0,VALID,24.2671,VALID,40,VALID,0.816797,
2010-05-26, 01:29:05,VALID,1000.27,VALID,0,VALID,93.6154,VALID,0,VALID,24.2476,VALID,49,VALID,0.976563,
2010-05-26, 01:30:05,VALID,1000.29,VALID,0,VALID,93.6307,VALID,0,VALID,24.2086,VALID,58,VALID,0.905859,
2010-05-26, 01:31:05,VALID,1000.27,VALID,0,VALID,93.646,VALID,0,VALID,24.2086,VALID,58,VALID,0.697266,
2010-05-26, 01:32:05,VALID,1000.28,VALID,0,VALID,93.6612,VALID,0,VALID,24.2086,VALID,58,VALID,0.513672,
2010-05-26, 01:33:05,VALID,1000.23,VALID,0,VALID,93.6612,VALID,0,VALID,24.2086,VALID,58,VALID,0.564844,
2010-05-26, 01:34:05,VALID,1000.21,VALID,0,VALID,93.6612,VALID,0,VALID,24.1677,VALID,58,VALID,0.570313,
2010-05-26, 01:35:05,VALID,1000.2,VALID,0,VALID,93.6994,VALID,0,VALID,24.1677,VALID,58,VALID,0.535547,
2010-05-26, 01:36:05,VALID,1000.14,VALID,0,VALID,93.6917,VALID,0,VALID,24.1891,VALID,58,VALID,0.462891,
2010-05-26, 01:37:05,VALID,1000.11,VALID,0,VALID,93.7146,VALID,0,VALID,24.1872,VALID,58,VALID,0.424219,
2010-05-26, 01:38:05,VALID,1000.08,VALID,0,VALID,93.707,VALID,0,VALID,24.1872,VALID,58,VALID,0.412891,
2010-05-26, 01:39:04,VALID,1000.05,VALID,0,VALID,93.6917,VALID,0,VALID,24.1696,VALID,58,VALID,0.513672,
2010-05-26, 01:40:04,VALID,1000.03,VALID,0,VALID,93.707,VALID,0,VALID,24.1305,VALID,55,VALID,0.798047,
2010-05-26, 01:41:04,VALID,1000.03,VALID,0,VALID,93.7146,VALID,0,VALID,24.1305,VALID,50,VALID,1.025,
2010-05-26, 01:42:04,VALID,1000.01,VALID,0,VALID,93.6917,VALID,0,VALID,24.0915,VALID,49,VALID,0.95,
2010-05-26, 01:43:04,VALID,1000.03,VALID,0,VALID,93.707,VALID,0,VALID,24.0506,VALID,53,VALID,0.906641,
2010-05-26, 01:44:04,VALID,1000,VALID,0,VALID,93.7146,VALID,0,VALID,24.072,VALID,66,VALID,0.848828,
2010-05-26, 01:45:04,VALID,999.983,VALID,0,VALID,93.7146,VALID,0,VALID,24.072,VALID,85,VALID,0.725391,
2010-05-26, 01:46:04,VALID,1000,VALID,0,VALID,93.707,VALID,0,VALID,24.0116,VALID,123,VALID,0.941406,
2010-05-26, 01:47:04,VALID,999.96,VALID,0,VALID,93.7451,VALID,0,VALID,24.0311,VALID,152,VALID,1.01875,
2010-05-26, 01:48:04,VALID,999.971,VALID,0,VALID,93.7604,VALID,0,VALID,24.072,VALID,152,VALID,0.758203,
2010-05-26, 01:49:04,VALID,999.953,VALID,0,VALID,93.7833,VALID,0,VALID,24.1092,VALID,152,VALID,0.412891,
2010-05-26, 01:50:04,VALID,999.963,VALID,0,VALID,93.8062,VALID,0,VALID,24.1305,VALID,152,VALID,0.292578,
2010-05-26, 01:51:04,VALID,999.952,VALID,0,VALID,93.8138,VALID,0,VALID,24.15,VALID,152,VALID,0.403906,
2010-05-26, 01:52:04,VALID,999.942,VALID,0,VALID,93.8214,VALID,0,VALID,24.1696,VALID,152,VALID,0.493359,
2010-05-26, 01:53:04,VALID,999.923,VALID,0,VALID,93.8367,VALID,0,VALID,24.1482,VALID,168,VALID,0.528516,
2010-05-26, 01:54:04,VALID,999.917,VALID,0,VALID,93.8214,VALID,0,VALID,24.1696,VALID,168,VALID,0.267578,
2010-05-26, 01:55:04,VALID,999.944,VALID,0,VALID,93.8596,VALID,0,VALID,24.1891,VALID,168,VALID,0.053125,
2010-05-26, 01:56:04,VALID,999.953,VALID,0,VALID,93.8367,VALID,0,VALID,24.1891,VALID,168,VALID,0.246484,
2010-05-26, 01:57:04,VALID,999.917,VALID,0,VALID,93.8596,VALID,0,VALID,24.1891,VALID,168,VALID,0.272266,
2010-05-26, 01:58:04,VALID,999.903,VALID,0,VALID,93.8367,VALID,0,VALID,24.1891,VALID,168,VALID,0.294141,
2010-05-26, 01:59:04,VALID,999.918,VALID,0,VALID,93.8138,VALID,0,VALID,24.15,VALID,168,VALID,0.548437,
2010-05-26, 02:00:04,VALID,999.892,VALID,0,VALID,93.8367,VALID,0,VALID,24.1092,VALID,147,VALID,0.569531,
2010-05-26, 02:01:04,VALID,999.911,VALID,0,VALID,93.8138,VALID,0,VALID,24.1092,VALID,147,VALID,0.411719,
2010-05-26, 02:02:04,VALID,999.884,VALID,0,VALID,93.8367,VALID,0,VALID,24.1305,VALID,147,VALID,0.371484,
2010-05-26, 02:03:04,VALID,999.897,VALID,0,VALID,93.852,VALID,0,VALID,24.1305,VALID,147,VALID,0.576172,
2010-05-26, 02:04:04,VALID,999.894,VALID,0,VALID,93.852,VALID,0,VALID,24.1305,VALID,147,VALID,0.663672,
2010-05-26, 02:05:04,VALID,999.886,VALID,0,VALID,93.8825,VALID,0,VALID,24.1696,VALID,147,VALID,0.583594,
2010-05-26, 02:06:04,VALID,999.897,VALID,0,VALID,93.8596,VALID,0,VALID,24.1696,VALID,135,VALID,0.70625,
2010-05-26, 02:07:04,VALID,999.925,VALID,0,VALID,93.852,VALID,0,VALID,24.15,VALID,127,VALID,0.642969,
2010-05-26, 02:08:04,VALID,999.932,VALID,0,VALID,93.852,VALID,0,VALID,24.111,VALID,112,VALID,0.597656,
2010-05-26, 02:09:04,VALID,999.93,VALID,0,VALID,93.8443,VALID,0,VALID,24.0915,VALID,98,VALID,0.547656,
2010-05-26, 02:10:04,VALID,999.942,VALID,0,VALID,93.8214,VALID,0,VALID,24.0525,VALID,91,VALID,0.474219,
2010-05-26, 02:11:04,VALID,999.922,VALID,0,VALID,93.8367,VALID,0,VALID,24.0134,VALID,91,VALID,0.374609,
2010-05-26, 02:12:04,VALID,999.956,VALID,0,VALID,93.8138,VALID,0,VALID,23.9939,VALID,91,VALID,0.409766,
2010-05-26, 02:13:04,VALID,999.929,VALID,0,VALID,93.8214,VALID,0,VALID,23.9549,VALID,97,VALID,0,
2010-05-26, 02:14:04,VALID,999.918,VALID,0,VALID,93.8367,VALID,0,VALID,23.9939,VALID,111,VALID,0,
2010-05-26, 02:15:04,VALID,999.904,VALID,0,VALID,93.852,VALID,0,VALID,24.0134,VALID,111,VALID,0,
2010-05-26, 02:16:04,VALID,999.89,VALID,0,VALID,93.8672,VALID,0,VALID,24.0116,VALID,111,VALID,0,
2010-05-26, 02:17:04,VALID,999.877,VALID,0,VALID,93.852,VALID,0,VALID,24.0329,VALID,76,VALID,0,
2010-05-26, 02:18:04,VALID,999.858,VALID,0,VALID,93.8367,VALID,0,VALID,23.9744,VALID,68,VALID,0,
2010-05-26, 02:19:04,VALID,999.811,VALID,0,VALID,93.8443,VALID,0,VALID,23.9336,VALID,41,VALID,0,
2010-05-26, 02:20:04,VALID,999.819,VALID,0,VALID,93.8367,VALID,0,VALID,23.8945,VALID,25,VALID,1.0625,
2010-05-26, 02:21:04,VALID,999.782,VALID,0,VALID,93.8291,VALID,0,VALID,23.8768,VALID,24,VALID,1.03164,
2010-05-26, 02:22:04,VALID,999.75,VALID,0,VALID,93.8367,VALID,0,VALID,23.8768,VALID,24,VALID,0.791016,
2010-05-26, 02:23:04,VALID,999.747,VALID,0,VALID,93.8214,VALID,0,VALID,23.8573,VALID,24,VALID,0.45,
2010-05-26, 02:24:04,VALID,999.741,VALID,0,VALID,93.8214,VALID,0,VALID,23.8378,VALID,24,VALID,0.0546875,
2010-05-26, 02:25:04,VALID,999.723,VALID,0,VALID,93.8291,VALID,0,VALID,23.7988,VALID,24,VALID,0,
2010-05-26, 02:26:04,VALID,999.705,VALID,0,VALID,93.8214,VALID,0,VALID,23.7793,VALID,24,VALID,0,
2010-05-26, 02:27:04,VALID,999.695,VALID,0,VALID,93.8291,VALID,0,VALID,23.7793,VALID,24,VALID,0,
2010-05-26, 02:28:04,VALID,999.702,VALID,0,VALID,93.8443,VALID,0,VALID,23.7793,VALID,24,VALID,0,
2010-05-26, 02:29:04,VALID,999.683,VALID,0,VALID,93.852,VALID,0,VALID,23.7579,VALID,24,VALID,0,
2010-05-26, 02:30:04,VALID,999.657,VALID,0,VALID,93.8748,VALID,0,VALID,23.7988,VALID,24,VALID,0,
2010-05-26, 02:31:04,VALID,999.669,VALID,0,VALID,93.8977,VALID,0,VALID,23.8573,VALID,24,VALID,0,
2010-05-26, 02:32:04,VALID,999.638,VALID,0,VALID,93.9054,VALID,0,VALID,23.8768,VALID,24,VALID,0,
2010-05-26, 02:33:04,VALID,999.634,VALID,0,VALID,93.913,VALID,0,VALID,23.8768,VALID,24,VALID,0,
2010-05-26, 02:34:04,VALID,999.599,VALID,0,VALID,93.8977,VALID,0,VALID,23.875,VALID,24,VALID,0,
2010-05-26, 02:35:04,VALID,999.606,VALID,0,VALID,93.9359,VALID,0,VALID,23.8963,VALID,24,VALID,0,
2010-05-26, 02:36:04,VALID,999.579,VALID,0,VALID,93.9359,VALID,0,VALID,23.9159,VALID,24,VALID,0,
2010-05-26, 02:37:04,VALID,999.559,VALID,0,VALID,93.913,VALID,0,VALID,23.8555,VALID,24,VALID,0,
2010-05-26, 02:38:04,VALID,999.545,VALID,0,VALID,93.9283,VALID,0,VALID,23.8573,VALID,24,VALID,0,
2010-05-26, 02:39:04,VALID,999.555,VALID,0,VALID,93.8977,VALID,0,VALID,23.8378,VALID,24,VALID,0.0878906,
2010-05-26, 02:40:04,VALID,999.532,VALID,0,VALID,93.8977,VALID,0,VALID,23.797,VALID,24,VALID,0.263281,
2010-05-26, 02:41:04,VALID,999.532,VALID,0,VALID,93.9283,VALID,0,VALID,23.8183,VALID,24,VALID,0.446484,
2010-05-26, 02:42:04,VALID,999.543,VALID,0,VALID,93.9283,VALID,0,VALID,23.7793,VALID,24,VALID,0.571094,
2010-05-26, 02:43:04,VALID,999.543,VALID,0,VALID,93.9435,VALID,0,VALID,23.7793,VALID,2,VALID,0.739062,
2010-05-26, 02:44:04,VALID,999.563,VALID,0,VALID,93.9511,VALID,0,VALID,23.7402,VALID,337,VALID,0.630469,
2010-05-26, 02:45:04,VALID,999.579,VALID,0,VALID,93.9511,VALID,0,VALID,23.6817,VALID,337,VALID,0.521875,
2010-05-26, 02:46:04,VALID,999.623,VALID,0,VALID,93.974,VALID,0,VALID,23.7207,VALID,337,VALID,0.51875,
2010-05-26, 02:47:04,VALID,999.617,VALID,0,VALID,93.9664,VALID,0,VALID,23.7793,VALID,337,VALID,0.196094,
2010-05-26, 02:48:04,VALID,999.638,VALID,0,VALID,94.0045,VALID,0,VALID,23.8183,VALID,337,VALID,0.267188,
2010-05-26, 02:49:04,VALID,999.62,VALID,0,VALID,93.9969,VALID,0,VALID,23.8378,VALID,337,VALID,0,
2010-05-26, 02:50:04,VALID,999.614,VALID,0,VALID,93.9817,VALID,0,VALID,23.8378,VALID,337,VALID,0,
2010-05-26, 02:51:04,VALID,999.665,VALID,0,VALID,94.0122,VALID,0,VALID,23.8183,VALID,337,VALID,0,
2010-05-26, 02:52:04,VALID,999.709,VALID,0,VALID,93.9817,VALID,0,VALID,23.7988,VALID,337,VALID,0,
2010-05-26, 02:53:04,VALID,999.727,VALID,0,VALID,93.9588,VALID,0,VALID,23.7402,VALID,337,VALID,0,
2010-05-26, 02:54:04,VALID,999.778,VALID,0,VALID,93.974,VALID,0,VALID,23.6817,VALID,337,VALID,0,
2010-05-26, 02:55:04,VALID,999.756,VALID,0,VALID,93.9893,VALID,0,VALID,23.6622,VALID,337,VALID,0.597266,
2010-05-26, 02:56:04,VALID,999.781,VALID,0,VALID,94.0122,VALID,0,VALID,23.7207,VALID,337,VALID,0.700781,
2010-05-26, 02:57:04,VALID,999.768,VALID,0,VALID,94.058,VALID,0,VALID,23.8183,VALID,89,VALID,0.961328,
2010-05-26, 02:58:04,VALID,999.791,VALID,0,VALID,94.0503,VALID,0,VALID,23.8183,VALID,141,VALID,1.03086,
2010-05-26, 02:59:04,VALID,999.8,VALID,0,VALID,94.0427,VALID,0,VALID,23.8378,VALID,140,VALID,0.878125,
2010-05-26, 03:00:04,VALID,999.782,VALID,0,VALID,94.0427,VALID,0,VALID,23.8183,VALID,140,VALID,0.569922,
2010-05-26, 03:01:04,VALID,999.793,VALID,0,VALID,94.0427,VALID,0,VALID,23.8378,VALID,140,VALID,0.366016,
2010-05-26, 03:02:04,VALID,999.823,VALID,0,VALID,94.0351,VALID,0,VALID,23.8165,VALID,140,VALID,0.308984,
2010-05-26, 03:03:04,VALID,999.801,VALID,0,VALID,94.058,VALID,0,VALID,23.8573,VALID,140,VALID,0.427734,
2010-05-26, 03:04:04,VALID,999.81,VALID,0,VALID,94.0503,VALID,0,VALID,23.8573,VALID,140,VALID,0.316016,
2010-05-26, 03:05:04,VALID,999.813,VALID,0,VALID,94.0427,VALID,0,VALID,23.8573,VALID,140,VALID,0.424219,
2010-05-26, 03:06:04,VALID,999.777,VALID,0,VALID,94.0503,VALID,0,VALID,23.8963,VALID,175,VALID,0.634375,
2010-05-26, 03:07:04,VALID,999.758,VALID,0,VALID,94.058,VALID,0,VALID,23.9549,VALID,186,VALID,0.841016,
2010-05-26, 03:08:04,VALID,999.768,VALID,0,VALID,94.0503,VALID,0,VALID,23.9744,VALID,210,VALID,0.523438,
2010-05-26, 03:09:04,VALID,999.741,VALID,0,VALID,94.0427,VALID,0,VALID,23.9939,VALID,230,VALID,0.645312,
2010-05-26, 03:10:04,VALID,999.722,VALID,0,VALID,94.0503,VALID,0,VALID,24.0329,VALID,230,VALID,0.423047,
2010-05-26, 03:11:04,VALID,999.705,VALID,0,VALID,94.0274,VALID,0,VALID,24.0311,VALID,230,VALID,0.201562,
2010-05-26, 03:12:04,VALID,999.695,VALID,0,VALID,94.0427,VALID,0,VALID,24.0329,VALID,230,VALID,0.223047,
2010-05-26, 03:13:04,VALID,999.692,VALID,0,VALID,94.0045,VALID,0,VALID,24.0134,VALID,230,VALID,0.334375,
2010-05-26, 03:14:04,VALID,999.696,VALID,0,VALID,94.0045,VALID,0,VALID,23.9744,VALID,230,VALID,0.4625,
2010-05-26, 03:15:04,VALID,999.692,VALID,0,VALID,93.9817,VALID,0,VALID,23.8963,VALID,299,VALID,0.672656,
2010-05-26, 03:16:04,VALID,999.704,VALID,0,VALID,93.9511,VALID,0,VALID,23.7988,VALID,355,VALID,0.808203,
2010-05-26, 03:17:04,VALID,999.704,VALID,0,VALID,93.9664,VALID,0,VALID,23.7988,VALID,355,VALID,0.71875,
2010-05-26, 03:18:04,VALID,999.721,VALID,0,VALID,93.9511,VALID,0,VALID,23.7402,VALID,355,VALID,0.784766,
2010-05-26, 03:19:04,VALID,999.737,VALID,0,VALID,93.9435,VALID,0,VALID,23.6817,VALID,355,VALID,0.540625,
2010-05-26, 03:20:04,VALID,999.764,VALID,0,VALID,93.913,VALID,0,VALID,23.6427,VALID,355,VALID,0.408984,
2010-05-26, 03:21:04,VALID,999.713,VALID,0,VALID,93.8901,VALID,0,VALID,23.6036,VALID,355,VALID,0.165234,
2010-05-26, 03:22:04,VALID,999.742,VALID,0,VALID,93.913,VALID,0,VALID,23.5841,VALID,355,VALID,0,
2010-05-26, 03:23:04,VALID,999.716,VALID,0,VALID,93.9206,VALID,0,VALID,23.5451,VALID,355,VALID,0,
2010-05-26, 03:24:04,VALID,999.705,VALID,0,VALID,93.9283,VALID,0,VALID,23.5043,VALID,355,VALID,0,
2010-05-26, 03:25:04,VALID,999.685,VALID,0,VALID,93.9206,VALID,0,VALID,23.5043,VALID,355,VALID,0,
2010-05-26, 03:26:04,VALID,999.712,VALID,0,VALID,93.913,VALID,0,VALID,23.5061,VALID,355,VALID,0,
2010-05-26, 03:27:04,VALID,999.72,VALID,0,VALID,93.9283,VALID,0,VALID,23.5061,VALID,355,VALID,0,
2010-05-26, 03:28:04,VALID,999.724,VALID,0,VALID,93.9283,VALID,0,VALID,23.5061,VALID,355,VALID,0,
2010-05-26, 03:29:04,VALID,999.744,VALID,0,VALID,93.9664,VALID,0,VALID,23.5061,VALID,97,VALID,0.561719,
2010-05-26, 03:30:04,VALID,999.765,VALID,0,VALID,93.9893,VALID,0,VALID,23.6232,VALID,97,VALID,0.553125,
2010-05-26, 03:31:04,VALID,999.777,VALID,0,VALID,94.0045,VALID,0,VALID,23.6817,VALID,120,VALID,0.676953,
2010-05-26, 03:32:04,VALID,999.856,VALID,0,VALID,94.0122,VALID,0,VALID,23.7207,VALID,132,VALID,0.748438,
2010-05-26, 03:33:04,VALID,999.849,VALID,0,VALID,94.0122,VALID,0,VALID,23.7402,VALID,139,VALID,0.882031,
2010-05-26, 03:34:04,VALID,999.862,VALID,0,VALID,94.0274,VALID,0,VALID,23.7402,VALID,141,VALID,1.02031,
2010-05-26, 03:35:04,VALID,999.893,VALID,0,VALID,93.9969,VALID,0,VALID,23.7597,VALID,146,VALID,0.95625,
2010-05-26, 03:36:04,VALID,999.893,VALID,0,VALID,94.0427,VALID,0,VALID,23.7793,VALID,148,VALID,0.783203,
2010-05-26, 03:37:04,VALID,999.897,VALID,0,VALID,94.0274,VALID,0,VALID,23.7793,VALID,152,VALID,0.837109,
2010-05-26, 03:38:04,VALID,999.904,VALID,0,VALID,94.0198,VALID,0,VALID,23.797,VALID,152,VALID,0.752734,
2010-05-26, 03:39:04,VALID,999.954,VALID,0,VALID,94.0427,VALID,0,VALID,23.8183,VALID,151,VALID,0.514063,
2010-05-26, 03:40:04,VALID,999.959,VALID,0,VALID,94.0198,VALID,0,VALID,23.8573,VALID,151,VALID,0.460156,
2010-05-26, 03:41:04,VALID,999.994,VALID,0,VALID,94.0274,VALID,0,VALID,23.8573,VALID,144,VALID,0.507422,
2010-05-26, 03:42:04,VALID,1000.03,VALID,0,VALID,94.0122,VALID,0,VALID,23.8378,VALID,105,VALID,0.692187,
2010-05-26, 03:43:04,VALID,1000.04,VALID,0,VALID,94.0122,VALID,0,VALID,23.8183,VALID,100,VALID,0.750781,
2010-05-26, 03:44:04,VALID,1000.08,VALID,0,VALID,93.9969,VALID,0,VALID,23.8165,VALID,96,VALID,0.785547,
2010-05-26, 03:45:04,VALID,1000.03,VALID,0,VALID,94.0045,VALID,0,VALID,23.8573,VALID,88,VALID,0.8625,
2010-05-26, 03:46:04,VALID,1000.04,VALID,0,VALID,93.9893,VALID,0,VALID,23.8378,VALID,84,VALID,0.789453,
2010-05-26, 03:47:04,VALID,1000.02,VALID,0,VALID,93.974,VALID,0,VALID,23.8573,VALID,84,VALID,0.733984,
2010-05-26, 03:48:04,VALID,1000.02,VALID,0,VALID,93.9588,VALID,0,VALID,23.8573,VALID,84,VALID,0.533594,